QIANFAN-20

Satellite information

Favourite Embed

Satellite Type and Status

PAYLOADIN ORBIT

Key statistics

Satellite QIANFAN-20 at a glance.

Uptime

429

Days in orbit

Revolutions

≈ 14.1

Per day

Orbit

LEO

Low Earth Orbit

Inclination

89.0

Latest

Satellite identification and parameters

Extended collection of information and parameters for QIANFAN-20.

Object identification

Identified? True

Debris? False

Object name: QIANFAN-20

International designator: 2024-185B

Object number (NORAD): 61553

Object ID (CCSDS): 61553

Country: PEOPLES REPUBLIC OF CHINA (PRC)

Current information (Y/N): Y

RCS size: LARGE

Orbital parameters

Period: 102.211 minutes

Inclination: 88.9821 deg

SMA: 7241.45 km

Apoapsis: 866.802 km

Periapsis: 859.829 km

RAAN: 77.7884 deg

Eccentricy: 0.0004815

Argument of periapsis: 349.3168 deg

Mean anomaly: 10.7913 deg

Mean motion: 14.08848949 rev/day

Mean motion (dot): 0.00000472 rev/day2

B* drag term: 0.00026527335 1/REarth

Two-line elements (TLE)

Creation date: Dec. 17, 2025, 2:25 a.m.

Reference frame: TEME

Reference center: EARTH

Epoch: Dec. 16, 2025, 10:46 p.m. UTC

TLE line 0: 0 QIANFAN-20

TLE line 1: 1 61553U 24185B 25350.94927274 .00000472 00000-0 26527-3 0 9997

TLE line 2: 2 61553 88.9821 77.7884 0004815 349.3168 10.7913 14.08848949 70082

Live tracking on map

Real-time ground track for satellite QIANFAN-20.

In-orbit conjunctions

There are no conjunctions computed for QIANFAN-20, at the moment. Check back to stay up to date, as we update our databases every day.

Go to all conjunctions

Associated space launch

18 Low Earth Orbit communication satellites with Ku, Q and V band payloads for the G60 constellation operated by Shanghai Spacecom Satellite Technology (SSST) with funding backed by the Shanghai local government. Initial constellation will consist of 1296 satellites by 2027 with long term plans to expand it to 12000 satellites.

QIANFAN-20 was lifted into orbit during the mission ‘Long March 6A | G60 Polar Group 02’, on board a Long March 6A space rocket.

The launch took place on Oct. 15, 2024, 11:06 a.m. from Launch Complex 9A.

For more information about the launch, click the button.

Launch to space Long March 6A | G60 Polar Group 02
Long March 6A | G60 Polar Group 02

Agency: N/A

Status: Launch Successful

Launch date: Oct. 15, 2024, 11:06 a.m. UTC

Rocket: Long March 6A

Launch pad: Launch Complex 9A

Location: Taiyuan Satellite Launch Center, People's Republic of China

...

Latest news about this satellite

News about space launch
Launch Roundup: Europa Clipper launches, Starlink launches return

The Federal Aviation Administration’s (FAA) recent decision to clear SpaceX’s Falcon 9 for a return to all flights paved the way for a busy week of launches. Before Falcon 9 returned to flying regular Starlink missions, though, a Falcon Heavy launch with ...

News about space launch
China launches second batch of 18 satellites for Thousand Sails megaconstellation

MILAN — China successfully launched the second group of 18 satellites for the planned 14,000-satellite Thousand Sails megaconstellation Tuesday. A Long March 6A rocket lifted off from Taiyuan Satellite Launch […]


Newsletter sign-up

Weekly statistics, charts and insights to help you stay on top of the space industry.